Madera, CA

3:15 AM PDT on May 28, 2018 (GMT -0700)
Madera Municipal

Weather History for KMAE - August, 2014

Change the Weather History Date:

Monday, August 4, 2014

  Actual Average Record
Temperature  
Mean Temperature 75 °F 78 °F  
Max Temperature 83 °F 97 °F 106 °F (2007)
Min Temperature 67 °F 60 °F 55 °F (2002)
Degree Days  
Heating Degree Days 0    
Month to date heating degree days 0  
Since 1 June heating degree days 0  
Since 1 July heating degree days 0  
Cooling Degree Days 10    
Month to date cooling degree days 68  
Year to date cooling degree days 1191  
Since 1 June cooling degree days 949  
Growing Degree Days 25 (Base 50)    
Moisture  
Dew Point 59 °F    
Average Humidity 62    
Maximum Humidity 78    
Minimum Humidity 45    
Precipitation  
Precipitation T in 0.00 in 0.00 in (2018)
Month to date precipitation T 0.00  
Year to date precipitation 3.61 8.02  
Since 1 July precipitation T  
Snow  
Snow 0.00 in - - ()
Month to date snowfall 0.0  
Since 1 June snowfall 0.0  
Since 1 July snowfall 0.0  
Snow Depth 0.00 in    
Sea Level Pressure  
Sea Level Pressure 29.90 in    
Wind  
Wind Speed 7 mph (WNW)    
Max Wind Speed 14 mph    
Max Gust Speed 16 mph    
Visibility 10 miles    
Events Rain    
T = Trace of Precipitation, MM = Missing Value Source: NWS Daily Summary

Daily Weather History Graph

Daily Weather History Graph

Search for Another Location

Airport or City:

Astronomy

Aug. 04, 2014 Rise Set
Actual Time 6:08 AM PDT 8:04 PM PDT
Civil Twilight 5:39 AM PDT 8:32 PM PDT
Nautical Twilight 5:05 AM PDT 9:07 PM PDT
Astronomical Twilight 4:28 AM PDT 9:44 PM PDT
Moon 2:22 PM PDT (8/4) 12:17 AM PDT (8/4)
Length of Visible Light 14h 52m
Length of Day
13h 56m
First Quarter, 58% of the Moon is Illuminated
Aug 4
First Quarter
Aug 10
Full
Aug 17
Last Quarter
Aug 25
New
Sep 2
First Quarter

Hourly Weather History & Observations

Time (PDT) Temp. Heat Index Dew Point Humidity Pressure Visibility Wind Dir Wind Speed Gust Speed Precip Events Conditions
12:53 AM 78.1 °F - 55.9 °F 46% 29.87 in 10.0 mi WNW 3.5 mph - N/A   Scattered Clouds
3:53 AM 77.0 °F - 55.9 °F 48% 29.87 in 10.0 mi West 5.8 mph - N/A   Scattered Clouds
5:53 AM 71.1 °F - 63.0 °F 75% 29.87 in 10.0 mi West 3.5 mph - 0.00 in   Scattered Clouds
6:53 AM 68.0 °F - 60.1 °F 76% 29.90 in 10.0 mi NW 6.9 mph - 0.00 in   Clear
7:53 AM 69.1 °F - 60.1 °F 73% 29.91 in 10.0 mi North 5.8 mph - 0.00 in Rain Light Rain
8:53 AM 71.1 °F - 60.1 °F 68% 29.93 in 10.0 mi NW 6.9 mph - 0.00 in   Clear
9:53 AM 73.0 °F - 59.0 °F 61% 29.93 in 10.0 mi NW 8.1 mph - N/A   Clear
10:53 AM 75.0 °F - 59.0 °F 57% 29.93 in 10.0 mi WNW 4.6 mph - N/A   Clear
11:53 AM 73.0 °F - 60.1 °F 64% 29.94 in 10.0 mi WNW 8.1 mph - N/A   Clear
12:53 PM 73.0 °F - 59.0 °F 61% 29.94 in 10.0 mi WNW 9.2 mph - N/A   Clear
1:53 PM 73.0 °F - 59.0 °F 61% 29.93 in 10.0 mi NW 8.1 mph - N/A   Clear
2:53 PM 73.0 °F - 57.9 °F 59% 29.92 in 10.0 mi NW 9.2 mph - N/A   Clear
3:53 PM 75.9 °F - 59.0 °F 56% 29.90 in 9.0 mi NW 5.8 mph - N/A   Clear
4:53 PM 80.1 °F 80.9 °F 60.1 °F 50% 29.89 in 9.0 mi WNW 8.1 mph - N/A   Clear
5:53 PM 82.0 °F 82.1 °F 59.0 °F 45% 29.88 in 10.0 mi NW 11.5 mph - N/A   Clear
6:53 PM 82.0 °F 82.1 °F 59.0 °F 45% 29.88 in 10.0 mi WNW 8.1 mph - N/A   Clear
7:53 PM 78.1 °F - 60.1 °F 54% 29.88 in 10.0 mi NW 8.1 mph - N/A   Clear
8:53 PM 73.0 °F - 59.0 °F 61% 29.89 in 10.0 mi West 4.6 mph - N/A   Clear
9:53 PM 70.0 °F - 60.1 °F 71% 29.91 in 10.0 mi West 5.8 mph - N/A   Clear
10:53 PM 68.0 °F - 60.1 °F 76% 29.91 in 10.0 mi WSW 4.6 mph - N/A   Clear
11:53 PM 66.9 °F - 59.0 °F 76% 29.91 in 9.0 mi West 4.6 mph - N/A   Clear